QPF
0.00 0.00 0.00 0.00 0.00 0.00 0.00 0.00 0.00 0.00 0.00 0.00 0.00 0.00 0.00 0.00 0.00 0.00 0.00 0.00 0.00 0.00 0.00 0.00 0.00 0.00 0.00 0.00 0.00 0.00 0.00 0.00 0.00 0.00 0.00 0.00 0.00 0.00 0.00 0.00 0.00 0.00 0.00
0.00 0.00 0.00 0.00 0.00 0.00 0.00 0.00 0.00 0.00 0.00 0.00 0.00 0.00 0.00 0.00 0.00 0.00 0.00 0.00 0.00 0.00 0.00 0.00 0.00 0.00 0.00 0.00 0.00 0.00 0.00 0.00 0.00 0.00 0.00 0.00 0.00 0.00 0.00 0.00 0.00 0.00 0.00
0.00 0.00 0.00 0.00 0.00 0.00 0.00 0.00 0.00 0.00 0.00 0.00 0.00 0.00 0.00 0.00 0.00 0.00 0.00 0.00 0.00 0.00 0.00 0.00 0.00 0.00 0.00 0.00 0.00 0.00 0.00 0.00 0.00 0.00 0.00 0.00 0.00 0.00 0.00 0.00 0.00 0.00 0.00
0.00 0.00 0.00 0.00 0.00 0.00 0.00 0.00 0.00 0.00 0.00 0.00 0.00 0.00 0.00 0.00 0.00 0.00 0.00 0.00 0.00 0.00 0.00 0.00 0.00 0.00 0.00 0.00 0.00 0.00 0.00 0.00 0.00 0.00 0.00 0.00 0.00 0.00 0.00 0.00 0.00 0.00 0.00
0.00 0.00 0.02 0.01 0.00 0.00 0.00 0.00 0.00 0.00 0.00 0.00 0.00 0.00 0.00 0.00 0.00 0.00 0.00 0.00 0.00 0.00 0.00 0.00 0.00 0.00 0.00 0.00 0.00 0.00 0.00 0.00 0.00 0.00 0.00 0.00 0.00 0.00 0.00 0.00 0.00 0.00 0.00
0.00 0.00 0.02 0.01 0.00 0.01 0.00 0.00 0.00 0.00 0.00 0.00 0.00 0.00 0.00 0.00 0.00 0.00 0.00 0.00 0.00 0.00 0.00 0.00 0.00 0.00 0.00 0.00 0.00 0.00 0.00 0.00 0.00 0.00 0.00 0.00 0.00 0.00 0.00 0.00 0.00 0.00 0.01
0.00 0.00 0.02 0.02 0.01 0.01 0.02 0.02 0.02 0.00 0.00 0.00 0.00 0.00 0.00 0.00 0.00 0.00 0.00 0.00 0.00 0.00 0.00 0.00 0.00 0.00 0.00 0.00 0.00 0.00 0.00 0.00 0.00 0.00 0.00 0.00 0.00 0.00 0.00 0.00 0.01 0.03 0.05
0.00 0.00 0.00 0.00 0.00 0.01 0.03 0.03 0.03 0.02 0.00 0.00 0.00 0.00 0.00 0.00 0.00 0.00 0.00 0.00 0.00 0.00 0.00 0.00 0.00 0.00 0.00 0.00 0.00 0.00 0.00 0.00 0.00 0.00 0.00 0.00 0.00 0.00 0.00 0.02 0.05 0.08 0.06
0.00 0.00 0.00 0.00 0.00 0.00 0.03 0.05 0.04 0.03 0.00 0.00 0.00 0.00 0.00 0.00 0.00 0.00 0.00 0.00 0.00 0.00 0.00 0.00 0.00 0.00 0.00 0.00 0.00 0.00 0.00 0.00 0.00 0.00 0.00 0.00 0.00 0.00 0.01 0.10 0.09 0.08 0.12
0.00 0.00 0.00 0.00 0.00 0.00 0.00 0.04 0.06 0.05 0.01 0.00 0.00 0.00 0.00 0.00 0.00 0.00 0.00 0.00 0.00 0.00 0.00 0.00 0.00 0.00 0.00 0.00 0.00 0.00 0.00 0.00 0.00 0.00 0.00 0.00 0.00 0.01 0.02 0.12 0.08 0.25 0.32
0.00 0.00 0.00 0.00 0.00 0.00 0.00 0.02 0.07 0.08 0.03 0.00 0.00 0.00 0.00 0.00 0.00 0.00 0.00 0.00 0.00 0.00 0.00 0.00 0.00 0.00 0.00 0.00 0.00 0.00 0.00 0.00 0.00 0.00 0.00 0.00 0.00 0.00 0.01 0.01 0.04 0.28 0.46
0.00 0.00 0.00 0.00 0.00 0.00 0.00 0.00 0.03 0.08 0.07 0.01 0.00 0.00 0.00 0.00 0.00 0.00 0.00 0.00 0.00 0.00 0.00 0.00 0.00 0.00 0.00 0.00 0.00 0.00 0.00 0.00 0.00 0.00 0.00 0.00 0.00 0.02 0.00 0.01 0.05 0.21 0.39
0.00 0.00 0.00 0.00 0.00 0.00 0.00 0.01 0.03 0.05 0.09 0.02 0.00 0.00 0.00 0.00 0.00 0.00 0.00 0.00 0.00 0.00 0.00 0.00 0.00 0.00 0.00 0.00 0.00 0.00 0.00 0.00 0.00 0.00 0.00 0.00 0.01 0.00 0.00 0.02 0.08 0.34 0.40
0.00 0.00 0.00 0.00 0.00 0.00 0.00 0.00 0.06 0.06 0.07 0.02 0.00 0.00 0.00 0.00 0.00 0.00 0.00 0.00 0.00 0.00 0.00 0.00 0.00 0.00 0.00 0.00 0.00 0.00 0.00 0.00 0.00 0.00 0.00 0.00 0.00 0.00 0.00 0.07 0.16 0.34 0.28
0.00 0.00 0.00 0.00 0.00 0.00 0.00 0.00 0.03 0.07 0.04 0.01 0.00 0.00 0.00 0.00 0.00 0.00 0.00 0.00 0.00 0.00 0.00 0.00 0.00 0.00 0.00 0.00 0.00 0.00 0.00 0.00 0.00 0.00 0.00 0.00 0.00 0.00 0.01 0.06 0.11 0.40 0.16
0.00 0.00 0.00 0.00 0.00 0.01 0.00 0.00 0.06 0.11 0.06 0.00 0.00 0.00 0.00 0.00 0.00 0.00 0.00 0.00 0.00 0.00 0.00 0.00 0.00 0.00 0.00 0.00 0.00 0.00 0.00 0.00 0.00 0.00 0.00 0.00 0.00 0.00 0.02 0.02 0.11 0.39 0.16
0.02 0.01 0.01 0.00 0.03 0.04 0.01 0.03 0.09 0.07 0.03 0.00 0.00 0.00 0.00 0.00 0.00 0.00 0.00 0.00 0.00 0.00 0.00 0.00 0.00 0.00 0.00 0.00 0.00 0.00 0.00 0.00 0.00 0.00 0.00 0.00 0.00 0.00 0.00 0.03 0.17 0.22 0.18
0.03 0.03 0.04 0.04 0.07 0.08 0.05 0.08 0.08 0.05 0.03 0.00 0.00 0.00 0.00 0.00 0.00 0.00 0.00 0.00 0.00 0.00 0.00 0.00 0.00 0.00 0.00 0.00 0.00 0.00 0.00 0.00 0.00 0.00 0.00 0.00 0.00 0.00 0.00 0.01 0.04 0.13 0.24
0.05 0.07 0.06 0.09 0.13 0.08 0.07 0.08 0.08 0.07 0.02 0.00 0.00 0.00 0.00 0.00 0.00 0.00 0.00 0.00 0.00 0.00 0.00 0.00 0.00 0.00 0.00 0.00 0.00 0.00 0.00 0.00 0.00 0.00 0.00 0.00 0.00 0.00 0.00 0.01 0.05 0.09 0.28
0.07 0.09 0.16 0.21 0.16 0.08 0.07 0.05 0.05 0.07 0.05 0.01 0.00 0.00 0.00 0.00 0.00 0.00 0.00 0.00 0.00 0.00 0.00 0.00 0.00 0.00 0.00 0.00 0.00 0.00 0.00 0.00 0.00 0.00 0.00 0.00 0.00 0.00 0.00 0.00 0.01 0.01 0.07
0.12 0.14 0.24 0.24 0.17 0.09 0.05 0.04 0.04 0.05 0.04 0.03 0.02 0.01 0.00 0.00 0.00 0.00 0.00 0.00 0.00 0.00 0.00 0.00 0.00 0.00 0.00 0.00 0.00 0.00 0.00 0.00 0.00 0.00 0.00 0.00 0.00 0.00 0.00 0.00 0.00 0.01 0.03
0.13 0.21 0.20 0.19 0.20 0.13 0.06 0.04 0.03 0.01 0.02 0.02 0.00 0.00 0.00 0.00 0.00 0.00 0.00 0.00 0.00 0.00 0.00 0.00 0.00 0.00 0.00 0.00 0.00 0.00 0.00 0.00 0.00 0.00 0.00 0.00 0.00 0.00 0.00 0.00 0.00 0.01 0.02
0.12 0.18 0.25 0.20 0.21 0.16 0.08 0.04 0.03 0.01 0.01 0.01 0.01 0.00 0.00 0.00 0.00 0.00 0.00 0.00 0.00 0.00 0.00 0.00 0.00 0.00 0.00 0.00 0.00 0.00 0.00 0.00 0.00 0.00 0.00 0.00 0.00 0.00 0.00 0.00 0.00 0.01 0.03
0.16 0.14 0.18 0.19 0.18 0.16 0.11 0.08 0.07 0.03 0.00 0.01 0.00 0.00 0.00 0.00 0.00 0.00 0.00 0.00 0.00 0.00 0.00 0.00 0.00 0.00 0.00 0.00 0.00 0.00 0.00 0.00 0.00 0.00 0.00 0.00 0.00 0.00 0.00 0.00 0.00 0.00 0.02
0.13 0.11 0.06 0.04 0.04 0.03 0.02 0.01 0.01 0.00 0.00 0.00 0.00 0.00 0.00 0.00 0.00 0.00 0.00 0.00 0.00 0.00 0.00 0.00 0.00 0.00 0.00 0.00 0.00 0.00 0.00 0.00 0.00 0.00 0.00 0.00 0.00 0.00 0.00 0.00 0.00 0.00 0.01
0.02 0.01 0.00 0.00 0.00 0.00 0.00 0.00 0.00 0.00 0.00 0.00 0.00 0.00 0.00 0.00 0.00 0.00 0.00 0.00 0.00 0.00 0.00 0.00 0.00 0.00 0.00 0.00 0.00 0.00 0.00 0.00 0.00 0.00 0.00 0.00 0.00 0.00 0.00 0.00 0.00 0.00 0.01
MSLP
1010.23 1009.80 1009.54 1009.03 1008.19 1007.17 1006.09 1005.40 1004.89 1005.24 1005.73 1006.27 1007.02 1007.89 1008.63 1009.41 1010.04 1010.73 1011.40 1012.07 1012.84 1013.55 1014.02 1014.62 1015.07 1015.43 1015.96 1016.22 1016.44 1016.74 1017.18 1017.40 1017.52 1016.98 1016.54 1016.12 1015.91 1015.61 1015.41 1015.25 1015.10 1014.86 1014.67
1009.94 1009.78 1009.48 1008.78 1008.14 1007.21 1006.05 1005.10 1004.74 1004.65 1004.90 1005.19 1005.95 1006.97 1007.73 1008.55 1009.27 1009.88 1010.54 1011.08 1012.04 1012.88 1013.56 1014.08 1014.59 1015.00 1015.57 1015.79 1016.10 1016.60 1016.68 1016.71 1016.86 1016.59 1016.14 1015.98 1015.72 1015.26 1014.97 1014.78 1014.39 1013.99 1013.77
1009.70 1009.18 1008.89 1008.55 1007.97 1007.01 1006.12 1005.17 1004.45 1004.15 1003.80 1004.28 1005.02 1006.08 1006.98 1007.77 1008.57 1009.29 1009.81 1010.34 1011.25 1011.96 1012.81 1013.48 1014.12 1014.69 1015.27 1015.51 1015.72 1016.07 1016.07 1015.99 1016.17 1016.12 1015.87 1015.61 1015.31 1015.00 1014.55 1014.07 1013.77 1013.28 1012.87
1009.40 1008.54 1008.10 1007.96 1007.47 1007.22 1006.38 1004.95 1004.34 1003.57 1003.10 1003.55 1004.24 1005.26 1006.21 1007.15 1007.87 1008.62 1009.27 1009.87 1010.62 1011.31 1012.04 1012.73 1013.41 1014.01 1014.57 1014.95 1015.25 1015.49 1015.55 1015.78 1015.78 1015.82 1015.67 1015.51 1015.14 1014.58 1014.22 1013.54 1012.80 1012.37 1011.86
1008.73 1008.00 1007.57 1007.33 1006.95 1006.70 1006.39 1005.21 1004.30 1003.42 1002.91 1002.69 1003.61 1004.63 1005.66 1006.62 1007.24 1008.04 1008.61 1009.27 1010.11 1010.94 1011.53 1012.26 1012.82 1013.26 1013.73 1014.23 1014.66 1015.07 1015.39 1015.49 1015.45 1015.56 1015.41 1014.99 1014.40 1013.94 1013.42 1012.68 1012.02 1011.23 1010.59
1008.11 1007.39 1006.69 1006.44 1006.38 1005.92 1006.31 1005.73 1004.33 1003.74 1002.71 1002.38 1002.94 1004.04 1005.08 1005.98 1006.65 1007.47 1008.19 1008.87 1009.62 1010.56 1011.39 1011.94 1012.35 1012.83 1013.20 1013.64 1014.03 1014.25 1014.58 1014.77 1014.84 1014.93 1014.60 1013.95 1013.23 1012.83 1012.24 1011.77 1011.06 1010.39 1008.72
1007.62 1006.81 1006.14 1005.62 1005.31 1005.06 1005.26 1005.31 1004.60 1004.12 1002.63 1002.37 1002.40 1003.47 1004.50 1005.47 1006.19 1007.00 1007.79 1008.44 1009.33 1010.17 1011.11 1011.74 1012.20 1012.47 1012.80 1013.24 1013.57 1013.65 1013.90 1014.00 1013.76 1013.70 1013.47 1013.18 1012.49 1012.06 1011.54 1010.57 1009.90 1009.01 1007.86
1007.04 1006.39 1005.59 1005.10 1004.98 1004.72 1004.76 1004.79 1004.40 1004.15 1002.78 1002.14 1001.87 1002.84 1003.97 1005.07 1005.81 1006.71 1007.46 1008.15 1009.07 1009.91 1010.62 1011.31 1011.93 1012.31 1012.63 1012.99 1013.31 1013.56 1013.75 1013.65 1013.33 1013.01 1012.55 1012.12 1011.67 1010.80 1010.02 1009.14 1008.36 1007.49 1006.68
1006.57 1005.79 1005.11 1004.95 1004.69 1004.55 1004.03 1003.96 1003.88 1003.83 1002.93 1001.71 1001.46 1002.24 1003.42 1004.63 1005.44 1006.50 1007.37 1008.17 1009.09 1009.76 1010.38 1010.96 1011.51 1012.06 1012.33 1012.66 1013.06 1013.51 1013.51 1013.18 1012.59 1012.35 1012.10 1011.50 1010.52 1009.46 1008.77 1008.01 1007.16 1006.52 1005.22
1006.09 1005.32 1005.06 1004.64 1004.23 1003.97 1003.98 1003.25 1002.94 1002.92 1002.52 1001.46 1001.12 1001.74 1002.88 1004.28 1005.30 1006.34 1007.26 1008.13 1008.89 1009.62 1010.19 1010.67 1011.20 1011.65 1012.03 1012.47 1012.88 1013.33 1013.17 1012.87 1012.50 1012.13 1011.67 1010.68 1009.82 1008.78 1007.81 1007.35 1006.48 1005.36 1004.07
1005.58 1004.93 1004.61 1004.42 1004.08 1003.06 1002.50 1002.17 1001.85 1002.12 1002.05 1001.23 1000.79 1001.55 1002.61 1003.82 1005.14 1006.06 1007.05 1007.85 1008.56 1009.28 1009.90 1010.54 1010.86 1011.14 1011.79 1012.26 1012.54 1012.79 1012.74 1012.30 1012.14 1011.95 1011.14 1010.21 1009.25 1008.13 1007.09 1006.22 1005.05 1004.01 1002.46
1004.91 1004.45 1004.06 1003.56 1003.14 1002.17 1001.52 1001.00 1001.01 1000.87 1001.57 1001.10 1000.57 1001.58 1002.57 1003.65 1004.77 1005.91 1006.85 1007.50 1008.06 1008.87 1009.52 1010.12 1010.50 1011.02 1011.62 1012.04 1012.19 1012.27 1012.17 1011.98 1011.89 1011.64 1010.80 1009.95 1009.04 1007.76 1006.39 1005.09 1003.57 1002.18 1000.79
1004.08 1003.72 1003.36 1002.71 1001.94 1000.80 999.64 999.36 999.46 1000.59 1001.24 1001.05 1000.36 1001.29 1002.61 1003.81 1004.77 1005.69 1006.70 1007.25 1007.95 1008.66 1009.25 1010.07 1010.70 1011.16 1011.54 1011.75 1011.88 1011.82 1011.84 1011.82 1011.65 1011.43 1010.61 1009.91 1009.08 1007.78 1006.31 1004.80 1002.71 1001.21 999.09
1003.31 1002.94 1002.57 1002.10 1001.24 1000.17 998.68 997.95 999.02 999.97 1000.68 1000.33 999.87 1001.12 1002.47 1003.75 1004.73 1005.62 1006.54 1007.36 1008.03 1008.53 1009.29 1010.05 1010.55 1010.92 1011.32 1011.48 1011.54 1011.72 1011.63 1011.48 1011.33 1011.25 1010.46 1009.82 1008.78 1007.58 1006.31 1005.39 1003.64 1001.54 1000.27
1002.73 1002.25 1001.80 1001.49 1000.58 999.54 998.52 998.21 998.61 999.32 999.85 999.92 999.70 1000.71 1002.06 1003.43 1004.32 1005.07 1006.16 1007.21 1007.86 1008.58 1009.37 1009.95 1010.64 1011.19 1011.51 1011.49 1011.48 1011.56 1011.44 1011.36 1011.39 1011.16 1010.36 1009.91 1008.83 1007.81 1006.64 1005.57 1004.14 1002.71 1001.83
1002.17 1001.80 1001.26 1000.86 1000.35 999.51 999.18 998.53 998.48 999.09 999.87 999.44 999.48 1000.50 1001.94 1003.04 1004.03 1005.29 1006.30 1006.89 1007.76 1008.51 1009.03 1009.92 1010.76 1011.23 1011.48 1011.38 1011.52 1011.62 1011.40 1011.41 1011.36 1011.11 1010.39 1010.15 1009.31 1008.40 1007.36 1006.18 1005.26 1004.22 1003.25
1001.94 1001.35 1000.76 1000.15 999.82 999.49 999.10 998.68 999.07 999.47 999.86 998.79 999.73 1000.96 1002.08 1003.02 1004.43 1005.58 1006.30 1007.19 1008.07 1008.41 1009.12 1010.09 1010.76 1011.06 1011.32 1011.39 1011.47 1011.58 1011.47 1011.41 1011.24 1011.01 1010.56 1010.31 1009.64 1009.02 1008.24 1007.36 1006.56 1005.73 1004.64
1000.97 1000.87 1000.45 999.51 999.56 999.44 998.77 998.89 999.26 999.45 1000.08 1000.02 1000.59 1001.68 1002.75 1003.85 1005.05 1005.86 1006.51 1007.43 1008.36 1008.71 1009.32 1010.03 1010.62 1010.81 1011.14 1011.39 1011.43 1011.60 1011.44 1011.34 1011.29 1010.91 1010.59 1010.41 1010.02 1009.51 1008.82 1008.08 1007.31 1006.66 1005.75
1000.29 1000.14 1000.01 999.61 999.47 999.20 998.90 999.30 999.87 1000.46 1001.04 1001.29 1002.18 1003.03 1003.79 1004.68 1005.61 1006.34 1007.03 1007.57 1008.30 1008.88 1009.48 1009.97 1010.34 1010.64 1011.00 1011.30 1011.37 1011.47 1011.36 1011.25 1011.06 1010.93 1010.76 1010.59 1010.45 1009.91 1009.47 1009.10 1008.43 1007.57 1006.81
1000.12 1000.00 999.81 999.38 998.74 998.51 999.28 1000.17 1000.78 1001.41 1001.90 1002.60 1003.40 1004.14 1004.81 1005.37 1006.22 1006.93 1007.19 1007.71 1008.19 1008.90 1009.44 1009.85 1010.15 1010.40 1010.86 1011.08 1011.30 1011.34 1011.38 1011.12 1011.10 1011.09 1010.85 1010.79 1010.55 1010.29 1010.04 1009.73 1009.13 1008.52 1007.89
1000.32 1000.17 999.78 999.11 999.26 999.59 1000.26 1001.05 1001.72 1002.39 1003.35 1004.06 1004.65 1005.16 1005.35 1005.61 1006.38 1006.80 1007.26 1007.85 1008.43 1008.91 1009.46 1009.70 1009.91 1010.28 1010.67 1010.91 1011.15 1011.25 1011.27 1011.06 1011.08 1011.21 1011.19 1011.13 1011.02 1010.67 1010.34 1009.93 1009.59 1009.09 1008.62
1000.70 1000.69 1000.46 1000.26 1000.50 1000.89 1001.41 1002.09 1002.71 1003.60 1004.55 1005.22 1005.57 1005.70 1005.72 1005.90 1006.55 1006.79 1007.41 1008.14 1008.53 1008.91 1009.26 1009.44 1009.78 1010.16 1010.47 1010.70 1010.87 1011.13 1011.23 1011.11 1011.07 1011.27 1011.31 1011.32 1011.20 1011.02 1010.74 1010.35 1009.88 1009.45 1009.04
1001.30 1001.41 1001.34 1001.38 1001.82 1002.22 1002.90 1003.43 1004.09 1004.55 1004.98 1005.46 1005.66 1005.70 1006.05 1006.38 1006.67 1007.30 1007.87 1008.34 1008.74 1009.07 1009.24 1009.59 1009.93 1010.12 1010.34 1010.54 1010.58 1010.92 1011.10 1011.17 1011.03 1011.12 1011.40 1011.49 1011.27 1011.21 1010.86 1010.70 1010.31 1009.94 1009.30
1002.27 1002.49 1002.60 1002.82 1003.11 1003.46 1003.82 1004.08 1004.24 1004.51 1005.15 1005.78 1006.26 1006.41 1006.48 1006.94 1007.52 1007.95 1008.21 1008.47 1008.81 1009.20 1009.57 1009.82 1010.10 1010.31 1010.34 1010.59 1010.64 1010.81 1011.23 1011.37 1011.17 1011.00 1011.21 1011.39 1011.41 1011.06 1011.09 1010.77 1010.48 1010.09 1009.49
1003.05 1003.22 1003.47 1003.62 1003.86 1004.19 1004.49 1004.79 1005.08 1005.41 1005.76 1006.08 1006.53 1006.89 1007.28 1007.72 1008.09 1008.28 1008.41 1008.68 1009.09 1009.42 1009.68 1010.00 1010.22 1010.41 1010.60 1010.54 1010.80 1011.02 1011.21 1011.25 1011.40 1011.35 1011.25 1011.23 1011.38 1011.51 1011.11 1010.80 1010.40 1009.97 1009.65
1004.23 1004.30 1004.30 1004.38 1004.70 1005.01 1005.25 1005.46 1005.72 1006.12 1006.51 1006.89 1007.29 1007.63 1007.94 1008.24 1008.50 1008.79 1009.04 1009.23 1009.45 1009.66 1009.88 1010.17 1010.48 1010.58 1010.52 1010.82 1010.96 1011.15 1011.20 1011.29 1011.33 1011.30 1011.23 1011.37 1011.33 1011.05 1010.85 1010.54 1010.32 1009.94 1009.58
Thickness
5501 5509 5517 5530 5543 5559 5576 5591 5606 5613 5618 5624 5630 5625 5621 5622 5623 5621 5619 5616 5615 5612 5611 5609 5607 5604 5600 5597 5595 5592 5587 5581 5577 5580 5579 5577 5573 5569 5565 5559 5552 5545 5536
5487 5483 5488 5500 5514 5530 5548 5564 5578 5591 5598 5609 5619 5617 5613 5614 5615 5616 5615 5615 5611 5608 5605 5604 5601 5598 5593 5590 5587 5583 5580 5576 5571 5570 5569 5565 5559 5555 5550 5544 5536 5528 5519
5475 5474 5475 5475 5484 5508 5527 5541 5555 5568 5582 5592 5604 5609 5603 5606 5608 5608 5609 5609 5606 5605 5601 5597 5593 5589 5585 5582 5579 5575 5573 5571 5564 5560 5560 5553 5547 5540 5537 5530 5521 5514 5504
5465 5468 5467 5465 5469 5479 5501 5526 5539 5554 5568 5575 5588 5598 5594 5595 5600 5600 5601 5602 5602 5600 5597 5594 5590 5585 5580 5576 5572 5569 5567 5560 5556 5550 5546 5540 5533 5526 5519 5514 5508 5497 5491
5458 5461 5459 5459 5460 5462 5478 5503 5523 5540 5554 5566 5574 5583 5581 5585 5591 5592 5595 5596 5595 5593 5592 5588 5584 5581 5578 5572 5567 5561 5557 5550 5546 5540 5536 5530 5525 5516 5506 5499 5491 5488 5487
5450 5454 5457 5454 5453 5457 5461 5483 5505 5524 5541 5555 5564 5568 5571 5578 5584 5585 5586 5587 5588 5587 5583 5580 5578 5576 5573 5568 5563 5560 5552 5543 5538 5532 5530 5527 5522 5510 5500 5489 5480 5476 5486
5442 5449 5452 5454 5454 5455 5456 5474 5485 5505 5530 5545 5556 5559 5565 5569 5575 5577 5579 5580 5581 5580 5575 5572 5570 5569 5566 5562 5558 5555 5548 5543 5541 5533 5528 5516 5511 5500 5489 5483 5474 5470 5469
5437 5441 5447 5447 5446 5448 5449 5462 5474 5489 5518 5536 5552 5554 5558 5560 5566 5570 5573 5574 5574 5572 5569 5565 5561 5559 5558 5555 5550 5545 5540 5536 5532 5527 5521 5513 5503 5495 5485 5480 5473 5466 5460
5431 5437 5441 5439 5438 5436 5445 5455 5469 5479 5504 5530 5545 5551 5553 5554 5561 5561 5564 5566 5566 5565 5562 5559 5556 5552 5552 5550 5544 5536 5533 5531 5528 5521 5514 5507 5501 5491 5482 5478 5470 5462 5464
5424 5429 5431 5434 5434 5435 5436 5451 5465 5477 5496 5521 5538 5547 5549 5549 5551 5553 5557 5557 5557 5556 5554 5553 5551 5548 5546 5543 5537 5530 5528 5525 5521 5515 5509 5503 5494 5489 5485 5476 5471 5467 5475
5417 5422 5424 5425 5427 5437 5443 5452 5464 5476 5490 5514 5533 5540 5545 5545 5544 5548 5550 5552 5553 5551 5549 5546 5546 5546 5539 5536 5532 5528 5525 5524 5518 5511 5508 5502 5494 5491 5486 5484 5484 5486 5492
5411 5414 5417 5423 5427 5439 5445 5455 5467 5481 5487 5503 5525 5529 5536 5537 5540 5543 5544 5548 5549 5546 5543 5542 5541 5539 5535 5530 5528 5527 5524 5522 5515 5509 5507 5500 5494 5492 5496 5500 5507 5511 5518
5407 5409 5412 5420 5428 5441 5454 5460 5474 5473 5481 5495 5520 5526 5527 5530 5535 5538 5539 5542 5541 5539 5538 5534 5531 5531 5528 5525 5524 5524 5521 5516 5512 5506 5505 5497 5492 5494 5503 5510 5522 5527 5542
5403 5404 5409 5415 5427 5441 5459 5470 5469 5471 5479 5495 5517 5518 5522 5524 5528 5531 5532 5531 5532 5533 5530 5524 5524 5524 5523 5521 5520 5518 5516 5514 5511 5504 5504 5497 5496 5500 5509 5512 5523 5537 5551
5396 5399 5405 5412 5423 5440 5454 5461 5466 5475 5483 5494 5511 5519 5521 5523 5526 5528 5527 5525 5525 5525 5520 5519 5516 5513 5513 5513 5513 5513 5513 5511 5507 5503 5503 5496 5499 5503 5513 5519 5529 5544 5553
5391 5394 5403 5408 5418 5434 5441 5454 5465 5476 5481 5497 5507 5513 5517 5516 5520 5518 5520 5521 5520 5519 5517 5512 5508 5507 5507 5508 5507 5507 5509 5508 5504 5502 5501 5493 5497 5501 5512 5522 5524 5538 5550
5383 5390 5398 5407 5416 5426 5437 5449 5457 5468 5479 5501 5504 5507 5510 5512 5511 5512 5513 5512 5511 5512 5507 5503 5501 5502 5502 5502 5502 5503 5504 5503 5502 5500 5498 5492 5494 5498 5508 5518 5522 5530 5544
5385 5387 5390 5405 5410 5419 5436 5446 5457 5470 5474 5487 5496 5497 5498 5499 5499 5503 5505 5503 5500 5501 5499 5498 5496 5497 5497 5496 5498 5498 5499 5499 5499 5500 5497 5492 5493 5498 5506 5515 5522 5530 5543
5384 5383 5381 5391 5401 5416 5431 5442 5452 5459 5467 5476 5478 5481 5487 5490 5492 5494 5494 5495 5493 5492 5492 5492 5491 5492 5492 5491 5492 5493 5495 5496 5498 5497 5494 5490 5489 5497 5502 5508 5518 5529 5539
5377 5375 5378 5391 5409 5425 5432 5437 5446 5453 5459 5462 5466 5471 5477 5480 5481 5483 5487 5488 5489 5486 5485 5485 5486 5487 5486 5487 5487 5489 5490 5493 5494 5492 5492 5487 5488 5492 5497 5504 5512 5523 5532
5371 5375 5386 5401 5411 5420 5426 5431 5437 5443 5446 5449 5451 5458 5469 5476 5477 5480 5480 5481 5480 5479 5478 5480 5481 5481 5480 5482 5483 5484 5486 5488 5488 5487 5486 5482 5483 5488 5493 5502 5510 5518 5528
5373 5377 5385 5396 5404 5410 5418 5424 5431 5433 5435 5438 5444 5455 5466 5471 5472 5475 5475 5473 5471 5471 5472 5475 5476 5476 5476 5478 5479 5479 5480 5483 5482 5482 5481 5481 5478 5483 5488 5497 5508 5516 5524
5375 5378 5385 5392 5397 5404 5412 5419 5424 5430 5435 5439 5446 5455 5460 5462 5465 5466 5465 5463 5463 5463 5466 5468 5469 5470 5472 5473 5474 5474 5474 5475 5477 5477 5477 5476 5478 5479 5485 5490 5499 5509 5520
5375 5376 5382 5387 5392 5398 5405 5416 5425 5431 5434 5437 5441 5447 5452 5454 5454 5455 5456 5457 5457 5458 5459 5460 5461 5463 5466 5467 5467 5467 5465 5465 5469 5471 5472 5472 5473 5478 5477 5484 5489 5502 5514
5377 5380 5384 5389 5396 5401 5408 5415 5421 5427 5431 5435 5438 5441 5442 5443 5444 5446 5448 5450 5450 5451 5453 5453 5455 5456 5457 5460 5459 5458 5457 5458 5458 5458 5459 5463 5465 5465 5469 5474 5483 5493 5505
5378 5382 5388 5393 5397 5402 5408 5413 5419 5423 5426 5428 5429 5431 5433 5433 5435 5437 5439 5442 5443 5444 5446 5447 5448 5448 5450 5450 5450 5448 5448 5447 5446 5445 5444 5443 5447 5455 5459 5465 5472 5482 5493